• In Deutschland
  • Länderverzeichnis
  • Für 7 Tage
  • Wassertemperatur
  • Satellitenkarten
  • Wetterkarte
  • Widgets
  • user-avatar
    Anmelden

    Stündliche Wetter Igls

    Heute, 23 April, Sonntag

    Zeit Temperatur Niederschläge Wind Luftdruck Luftfeuchtigkeit
    00:00 +4°C° 1 mm 2 m/S 685 mmHg 97%
    01:00 +4°C° 0 mm 2 m/S 685 mmHg 97%
    02:00 +3°C° 0,7 mm 2 m/S 685 mmHg 97%
    03:00 +3°C° 0,7 mm 2 m/S 685 mmHg 97%
    04:00 +2°C° 0,7 mm 2 m/S 685 mmHg 97%
    05:00 +2°C° 0,4 mm 2 m/S 685 mmHg 96%
    06:00 +3°C° 0,4 mm 2 m/S 685 mmHg 96%
    07:00 +3°C° 0 mm 2 m/S 685 mmHg 94%
    08:00 +4°C° 0,1 mm 2 m/S 685 mmHg 92%
    09:00 +4°C° 0,1 mm 2 m/S 685 mmHg 91%
    10:00 +5°C° 0,1 mm 2 m/S 685 mmHg 89%
    11:00 +6°C° 0,1 mm 2 m/S 685 mmHg 88%
    12:00 +7°C° 0,1 mm 1 m/S 685 mmHg 88%
    13:00 +8°C° 0,1 mm 1 m/S 685 mmHg 87%
    14:00 +8°C° 0,1 mm 1 m/S 685 mmHg 88%
    15:00 +7°C° 0,1 mm 2 m/S 685 mmHg 88%
    16:00 +7°C° 0,1 mm 2 m/S 685 mmHg 88%
    17:00 +7°C° 0,1 mm 1 m/S 685 mmHg 91%
    18:00 +6°C° 0,1 mm 1 m/S 685 mmHg 93%
    19:00 +5°C° 0,1 mm 1 m/S 685 mmHg 96%
    20:00 +4°C° 0 mm 1 m/S 686 mmHg 96%
    21:00 +3°C° 0 mm 1 m/S 686 mmHg 97%
    22:00 +2°C° 0 mm 1 m/S 687 mmHg 97%
    23:00 +1°C° 0 mm 1 m/S 686 mmHg 97%

    Morgen, 24 April, Montag

    Zeit Temperatur Niederschläge Wind Luftdruck Luftfeuchtigkeit
    00:00 0°C° 0 mm 1 m/S 686 mmHg 97%
    01:00 -1°C° 0 mm 1 m/S 685 mmHg 96%
    02:00 -1°C° 0 mm 1 m/S 685 mmHg 95%
    03:00 -1°C° 0 mm 1 m/S 684 mmHg 93%
    04:00 -2°C° 0 mm 1 m/S 684 mmHg 92%
    05:00 0°C° 0 mm 1 m/S 684 mmHg 91%
    06:00 +3°C° 0 mm 1 m/S 685 mmHg 89%
    07:00 +5°C° 0 mm 1 m/S 685 mmHg 88%
    08:00 +7°C° 0 mm 1 m/S 685 mmHg 86%
    09:00 +9°C° 0 mm 1 m/S 685 mmHg 85%
    10:00 +11°C° 0 mm 1 m/S 685 mmHg 83%
    11:00 +11°C° 0 mm 1 m/S 684 mmHg 81%
    12:00 +12°C° 0 mm 1 m/S 684 mmHg 80%
    13:00 +13°C° 0 mm 1 m/S 684 mmHg 78%
    14:00 +13°C° 0,1 mm 1 m/S 683 mmHg 78%
    15:00 +13°C° 0,1 mm 1 m/S 683 mmHg 79%
    16:00 +13°C° 0,1 mm 1 m/S 683 mmHg 79%
    17:00 +11°C° 0,2 mm 1 m/S 682 mmHg 84%
    18:00 +9°C° 0,2 mm 1 m/S 682 mmHg 89%
    19:00 +7°C° 0,2 mm 1 m/S 681 mmHg 94%
    20:00 +7°C° 0,1 mm 1 m/S 681 mmHg 94%
    21:00 +6°C° 0,1 mm 2 m/S 681 mmHg 94%
    22:00 +6°C° 0,1 mm 2 m/S 682 mmHg 94%
    23:00 +6°C° 0 mm 2 m/S 681 mmHg 94%

    übermorgen, 25 April, Dienstag

    Zeit Temperatur Niederschläge Wind Luftdruck Luftfeuchtigkeit
    00:00 +6°C° 0 mm 2 m/S 681 mmHg 95%
    01:00 +5°C° 0 mm 2 m/S 681 mmHg 95%
    02:00 +5°C° 0 mm 2 m/S 680 mmHg 95%
    03:00 +5°C° 0 mm 2 m/S 680 mmHg 95%
    04:00 +5°C° 0 mm 2 m/S 679 mmHg 94%
    05:00 +6°C° 0 mm 2 m/S 679 mmHg 93%
    06:00 +7°C° 0 mm 2 m/S 679 mmHg 92%
    07:00 +7°C° 0 mm 2 m/S 679 mmHg 90%
    08:00 +9°C° 0,1 mm 2 m/S 679 mmHg 86%
    09:00 +12°C° 0,1 mm 2 m/S 679 mmHg 81%
    10:00 +13°C° 0,1 mm 2 m/S 679 mmHg 77%
    11:00 +14°C° 0,4 mm 2 m/S 679 mmHg 77%
    12:00 +14°C° 0,4 mm 2 m/S 678 mmHg 77%
    13:00 +15°C° 0,4 mm 2 m/S 678 mmHg 77%
    14:00 +14°C° 1,1 mm 2 m/S 678 mmHg 81%
    15:00 +13°C° 1,1 mm 2 m/S 677 mmHg 84%
    16:00 +12°C° 1,1 mm 2 m/S 677 mmHg 87%
    17:00 +10°C° 1,8 mm 2 m/S 677 mmHg 91%
    18:00 +9°C° 1,8 mm 2 m/S 677 mmHg 94%
    19:00 +8°C° 1,8 mm 2 m/S 677 mmHg 97%
    20:00 +7°C° 2 mm 2 m/S 677 mmHg 98%
    21:00 +7°C° 2 mm 2 m/S 677 mmHg 98%
    22:00 +6°C° 2 mm 2 m/S 677 mmHg 98%
    23:00 +6°C° 1,8 mm 2 m/S 677 mmHg 98%

    26 April, Mittwoch

    Zeit Temperatur Niederschläge Wind Luftdruck Luftfeuchtigkeit
    00:00 +5°C° 1,8 mm 2 m/S 677 mmHg 98%
    01:00 +5°C° 1,8 mm 2 m/S 677 mmHg 98%
    02:00 +5°C° 1,8 mm 1 m/S 677 mmHg 99%
    03:00 +5°C° 1,8 mm 1 m/S 677 mmHg 99%
    04:00 +4°C° 1,8 mm 1 m/S 677 mmHg 99%
    05:00 +4°C° 1,7 mm 1 m/S 677 mmHg 98%
    06:00 +4°C° 1,7 mm 1 m/S 677 mmHg 98%
    07:00 +4°C° 1,7 mm 1 m/S 677 mmHg 98%
    08:00 +4°C° 1,8 mm 1 m/S 677 mmHg 98%
    09:00 +4°C° 1,8 mm 1 m/S 677 mmHg 98%
    10:00 +3°C° 1,8 mm 2 m/S 677 mmHg 98%
    11:00 +3°C° 1,5 mm 2 m/S 677 mmHg 98%
    12:00 +3°C° 1,5 mm 2 m/S 677 mmHg 98%
    13:00 +3°C° 1,5 mm 2 m/S 677 mmHg 98%
    14:00 +3°C° 1,3 mm 2 m/S 677 mmHg 98%
    15:00 +3°C° 1,3 mm 2 m/S 677 mmHg 98%
    16:00 +2°C° 1,3 mm 2 m/S 676 mmHg 97%
    17:00 +2°C° 0,5 mm 2 m/S 677 mmHg 98%
    18:00 +3°C° 0,5 mm 1 m/S 677 mmHg 98%
    19:00 +3°C° 0,5 mm 1 m/S 677 mmHg 98%
    20:00 +2°C° 0,7 mm 1 m/S 677 mmHg 98%
    21:00 +2°C° 0,7 mm 1 m/S 677 mmHg 98%
    22:00 +2°C° 0,7 mm 1 m/S 677 mmHg 98%
    23:00 +1°C° 0,9 mm 1 m/S 676 mmHg 98%

    27 April, Donnerstag

    Zeit Temperatur Niederschläge Wind Luftdruck Luftfeuchtigkeit
    00:00 +1°C° 0,9 mm 1 m/S 676 mmHg 98%
    01:00 +1°C° 0,9 mm 1 m/S 676 mmHg 98%
    02:00 +1°C° 0,7 mm 1 m/S 676 mmHg 98%
    03:00 +1°C° 0,7 mm 1 m/S 676 mmHg 98%
    04:00 0°C° 0,7 mm 1 m/S 676 mmHg 98%
    05:00 +1°C° 0,8 mm 1 m/S 676 mmHg 98%
    06:00 +1°C° 0,8 mm 1 m/S 676 mmHg 97%
    07:00 +2°C° 0,8 mm 1 m/S 676 mmHg 97%
    08:00 +2°C° 1,1 mm 1 m/S 677 mmHg 97%
    09:00 +2°C° 1,1 mm 1 m/S 677 mmHg 97%
    10:00 +2°C° 1,1 mm 2 m/S 677 mmHg 97%
    11:00 +2°C° 1 mm 2 m/S 677 mmHg 97%
    12:00 +2°C° 1 mm 2 m/S 677 mmHg 97%
    13:00 +2°C° 1 mm 2 m/S 677 mmHg 96%
    14:00 +2°C° 1 mm 2 m/S 677 mmHg 97%
    15:00 +2°C° 1 mm 2 m/S 677 mmHg 97%
    16:00 +2°C° 1 mm 2 m/S 677 mmHg 97%
    17:00 +1°C° 0,8 mm 2 m/S 677 mmHg 97%
    18:00 +1°C° 0,8 mm 2 m/S 677 mmHg 97%
    19:00 +2°C° 0,8 mm 1 m/S 678 mmHg 98%
    20:00 +1°C° 0,7 mm 1 m/S 678 mmHg 98%
    21:00 +1°C° 0,7 mm 1 m/S 678 mmHg 98%
    22:00 +1°C° 0,7 mm 1 m/S 679 mmHg 98%
    23:00 +1°C° 0,8 mm 1 m/S 679 mmHg 98%

    28 April, Freitag

    Zeit Temperatur Niederschläge Wind Luftdruck Luftfeuchtigkeit
    00:00 +1°C° 0,8 mm 1 m/S 679 mmHg 98%
    01:00 +1°C° 0,8 mm 1 m/S 679 mmHg 98%
    02:00 +1°C° 0,9 mm 1 m/S 679 mmHg 98%
    03:00 +1°C° 0,9 mm 1 m/S 679 mmHg 98%
    04:00 0°C° 0,9 mm 1 m/S 679 mmHg 98%
    05:00 +1°C° 1,2 mm 1 m/S 679 mmHg 98%
    06:00 -1°C° 1,2 mm 2 m/S 680 mmHg 98%
    07:00 -1°C° 1,2 mm 2 m/S 680 mmHg 98%
    08:00 +1°C° 1,1 mm 2 m/S 680 mmHg 97%
    09:00 +1°C° 1,1 mm 2 m/S 680 mmHg 97%
    10:00 +1°C° 1,1 mm 2 m/S 681 mmHg 97%
    11:00 +2°C° 0,7 mm 2 m/S 681 mmHg 97%
    12:00 +2°C° 0,7 mm 2 m/S 681 mmHg 97%
    13:00 +2°C° 0,7 mm 2 m/S 681 mmHg 97%
    14:00 +2°C° 0,6 mm 2 m/S 682 mmHg 97%
    15:00 +2°C° 0,6 mm 2 m/S 682 mmHg 97%
    16:00 +2°C° 0,6 mm 2 m/S 682 mmHg 96%
    17:00 +2°C° 0,5 mm 2 m/S 682 mmHg 97%
    18:00 +1°C° 0,5 mm 2 m/S 682 mmHg 97%
    19:00 -1°C° 0,5 mm 2 m/S 683 mmHg 97%
    20:00 -1°C° 0,4 mm 2 m/S 683 mmHg 97%
    21:00 -2°C° 0,4 mm 2 m/S 684 mmHg 97%
    22:00 -2°C° 0,4 mm 2 m/S 684 mmHg 97%
    23:00 -2°C° 0,3 mm 2 m/S 684 mmHg 97%
    Mehr zeigen